Regional Weather Roundup
Issued by NWS State College, PA

Home | Current Version | Previous Version | Text Only | Print | Product List | Glossary On
Versions: 1 2 3 4 5 6 7 8 9 10 11 12 13 14 15 16 17 18 19 20 21 22 23 24 25 26 27 28 29 30 31 32 33 34 35 36 37 38 39 40 41 42 43 44 45 46 47 48 49 50
000
ASUS41 KCTP 221210
RWRCTP

REGIONAL WEATHER ROUNDUP
NATIONAL WEATHER SERVICE STATE COLLEGE PA
800 AM EDT WED OCT 22 2014

Note: "fair" indicates few or no clouds below 12,000 feet with no
significant weather and/or obstructions to visibility.

* = STATION THAT DOES NOT REPORT PRECIPITATION /E.G. RAIN...SNOW...ETC/
    THUNDER OR FOG.

PAZ002>004-007>009-013>016-020>023-029>032-221300-
WESTERN PENNSYLVANIA

CITY           SKY/WX    TMP DP  RH WIND       PRES   REMARKS
ERIE           CLOUDY    46  39  76 N15G21    30.20R
MEADVILLE      CLOUDY    44  41  89 N14G20    30.15R
FRANKLIN*      CLOUDY    43  39  87 N5        30.14R
NEW CASTLE       N/A     46  44  93 N10       30.16R
BEAVER COUNTY  CLOUDY    45  45 100 N9        30.13R
BUTLER*        CLOUDY    46  39  76 N5        30.14R
PITTSBURGH INT CLOUDY    47  43  86 N9        30.12R
PITTSBURGH     CLOUDY    46  40  79 N13G21    30.10R
INDIANA*       CLOUDY    46  43  87 VRB5G13   30.11R
LATROBE        CLOUDY   N/A N/A N/A N12G17    30.11R
WASHINGTON CO* CLOUDY    46  41  81 N7        30.13R
$$

PAZ004>006-010>012-017>019-024>028-033>037-041-042-045-046-049>053-221300-
CENTRAL PENNSYLVANIA

CITY           SKY/WX    TMP DP  RH WIND       PRES   REMARKS
BRADFORD       CLOUDY    41  39  93 N10       30.10R FOG
DUBOIS         CLOUDY    44  41  89 N13       30.07R
CLEARFIELD     CLOUDY    45  42  89 N9        30.06R
JOHNSTOWN      CLOUDY    44  41  89 NW12      30.03R
ALTOONA        CLOUDY    48  44  86 N10       30.02R
STATE COLLEGE  CLOUDY    48  43  81 N8        30.03R
WILLIAMSPORT   CLOUDY    53  45  74 NW6       30.01R
SELINSGROVE    CLOUDY    54  47  77 N13       29.99R
FT INDIANTOWN  CLOUDY    55  52  88 N10G22    29.94R
CAPITAL CITY   CLOUDY    56  47  71 N10       29.95R
HARRISBURG     CLOUDY    55  47  74 N10       29.93R
YORK           CLOUDY    53  48  83 NW8       29.93R
$$

PAZ038>040-043-044-047-048-054-055-060>062-067>071-221300-
EASTERN PENNSYLVANIA

CITY           SKY/WX    TMP DP  RH WIND       PRES   REMARKS
SCRANTON       CLOUDY    51  48  89 NE6       29.98R
MOUNT POCONO   LGT RAIN  49  46  90 NE12      29.96R
ALLENTOWN      LGT RAIN  54  50  86 NE9       29.93R
QUAKERTOWN*    CLOUDY    54  50  87 NE10      29.93R
READING        LGT RAIN  55  49  80 N12       29.91R
LANCASTER      CLOUDY    54  49  83 N10       29.91R
COATESVILLE    LGT RAIN  54  52  94 N13       29.89R
POTTSTOWN      CLOUDY    55  50  83 N14G20    29.92R
BLUE BELL      CLOUDY    55  52  88 N3        29.88R
DOYLESTOWN     LGT RAIN  53  52  96 N7        29.90R
WILLOW GROVE   NOT AVBL
NORTH PHILA    LGT RAIN  57  52  83 N16       29.89R
PHILADELPHIA   LGT RAIN  57  52  83 NE17G28   29.87R
$$



USA.gov is the U.S. government's official web portal to all federal, state and local government web resources and services.